Time,TemperatureF,DewpointF,PressureIn,WindDirection,WindDirectionDegrees,WindSpeedMPH,WindSpeedGustMPH,Humidity,HourlyPrecipIn,Conditions,Clouds,dailyrainin,SoftwareType,DateUTC
2013-02-10 00:01:00,8.0,4.0,-100.00,WSW,258,9.0,16.0,83,0.00,,,0.00,,2013-02-10 07:01:00,
2013-02-10 00:11:00,8.0,4.0,-100.00,WSW,258,9.0,16.0,83,0.00,,,0.00,,2013-02-10 07:11:00,
2013-02-10 00:21:00,8.0,4.0,-100.00,WSW,258,9.0,16.0,83,0.00,,,0.00,,2013-02-10 07:21:00,
2013-02-10 00:52:00,7.0,3.0,-100.00,WSW,247,8.0,16.0,82,0.00,,,0.00,,2013-02-10 07:52:00,
2013-02-10 01:01:00,7.0,3.0,-100.00,WSW,247,8.0,16.0,82,0.00,,,0.00,,2013-02-10 08:01:00,
2013-02-10 01:11:00,7.0,3.0,-100.00,WSW,247,8.0,16.0,82,0.00,,,0.00,,2013-02-10 08:11:00,
2013-02-10 01:21:00,7.0,3.0,-100.00,WSW,247,8.0,16.0,82,0.00,,,0.00,,2013-02-10 08:21:00,
2013-02-10 01:52:00,7.0,2.0,-100.00,WSW,248,7.0,13.0,79,0.00,,,0.00,,2013-02-10 08:52:00,
2013-02-10 02:02:00,7.0,2.0,-100.00,WSW,248,7.0,13.0,79,0.00,,,0.00,,2013-02-10 09:02:00,
2013-02-10 02:11:00,7.0,2.0,-100.00,WSW,248,7.0,13.0,79,0.00,,,0.00,,2013-02-10 09:11:00,
2013-02-10 02:21:00,7.0,2.0,-100.00,WSW,248,7.0,13.0,79,0.00,,,0.00,,2013-02-10 09:21:00,
2013-02-10 02:52:00,7.0,0.0,-100.00,WSW,247,9.0,13.0,72,0.00,,,0.00,,2013-02-10 09:52:00,
2013-02-10 03:01:00,7.0,0.0,-100.00,WSW,247,9.0,13.0,72,0.00,,,0.00,,2013-02-10 10:01:00,
2013-02-10 03:11:00,7.0,0.0,-100.00,WSW,247,9.0,13.0,72,0.00,,,0.00,,2013-02-10 10:11:00,
2013-02-10 03:21:00,7.0,0.0,-100.00,WSW,247,9.0,13.0,72,0.00,,,0.00,,2013-02-10 10:21:00,
2013-02-10 03:52:00,8.0,0.0,-100.00,WSW,256,11.0,21.0,70,0.00,,,0.00,,2013-02-10 10:52:00,
2013-02-10 04:01:00,8.0,0.0,-100.00,WSW,256,11.0,21.0,70,0.00,,,0.00,,2013-02-10 11:01:00,
2013-02-10 04:11:00,8.0,0.0,-100.00,WSW,256,11.0,21.0,70,0.00,,,0.00,,2013-02-10 11:11:00,
2013-02-10 04:22:00,8.0,0.0,-100.00,WSW,256,11.0,21.0,70,0.00,,,0.00,,2013-02-10 11:22:00,
2013-02-10 04:52:00,7.0,2.0,-100.00,West,261,7.0,18.0,81,0.00,,,0.00,,2013-02-10 11:52:00,
2013-02-10 05:02:00,7.0,2.0,-100.00,West,261,7.0,18.0,81,0.00,,,0.00,,2013-02-10 12:02:00,
2013-02-10 05:12:00,7.0,2.0,-100.00,West,261,7.0,18.0,81,0.00,,,0.00,,2013-02-10 12:12:00,
2013-02-10 05:21:00,7.0,2.0,-100.00,West,261,7.0,18.0,81,0.00,,,0.00,,2013-02-10 12:21:00,
2013-02-10 07:52:00,7.0,3.0,-100.00,West,277,7.0,13.0,82,-99.99,,,0.00,,2013-02-10 14:52:00,
2013-02-10 08:02:00,7.0,3.0,-100.00,West,277,7.0,13.0,82,-99.99,,,0.00,,2013-02-10 15:02:00,
2013-02-10 08:11:00,7.0,3.0,-100.00,West,277,7.0,13.0,82,-99.99,,,0.00,,2013-02-10 15:11:00,
2013-02-10 08:22:00,7.0,3.0,-100.00,West,277,7.0,13.0,82,-99.99,,,0.00,,2013-02-10 15:22:00,
2013-02-10 08:52:00,8.0,3.0,-100.00,West,272,6.0,12.0,81,0.00,,,0.00,,2013-02-10 15:52:00,
2013-02-10 09:02:00,8.0,3.0,-100.00,West,272,6.0,12.0,81,0.00,,,0.00,,2013-02-10 16:02:00,
2013-02-10 09:11:00,8.0,3.0,-100.00,West,272,6.0,12.0,81,0.00,,,0.00,,2013-02-10 16:11:00,
2013-02-10 09:22:00,8.0,3.0,-100.00,West,272,6.0,12.0,81,0.00,,,0.00,,2013-02-10 16:22:00,
2013-02-10 09:52:00,9.0,4.0,-100.00,West,281,4.0,11.0,80,0.00,,,0.00,,2013-02-10 16:52:00,
2013-02-10 10:02:00,9.0,4.0,-100.00,West,281,4.0,11.0,80,0.00,,,0.00,,2013-02-10 17:02:00,
2013-02-10 10:11:00,9.0,4.0,-100.00,West,281,4.0,11.0,80,0.00,,,0.00,,2013-02-10 17:11:00,
2013-02-10 10:22:00,9.0,4.0,-100.00,West,281,4.0,11.0,80,0.00,,,0.00,,2013-02-10 17:22:00,
2013-02-10 10:52:00,11.0,6.0,-100.00,West,274,8.0,13.0,79,0.00,,,0.00,,2013-02-10 17:52:00,
2013-02-10 11:02:00,11.0,6.0,-100.00,West,274,8.0,13.0,79,0.00,,,0.00,,2013-02-10 18:02:00,
2013-02-10 11:11:00,11.0,6.0,-100.00,West,274,8.0,13.0,79,0.00,,,0.00,,2013-02-10 18:11:00,
2013-02-10 11:22:00,11.0,6.0,-100.00,West,274,8.0,13.0,79,0.00,,,0.00,,2013-02-10 18:22:00,
2013-02-10 11:52:00,13.0,7.0,-100.00,WNW,296,6.0,12.0,78,0.00,,,0.00,,2013-02-10 18:52:00,
2013-02-10 12:02:00,13.0,7.0,-100.00,WNW,296,6.0,12.0,78,0.00,,,0.00,,2013-02-10 19:02:00,
2013-02-10 12:12:00,13.0,7.0,-100.00,WNW,296,6.0,12.0,78,0.00,,,0.00,,2013-02-10 19:12:00,
2013-02-10 12:22:00,13.0,7.0,-100.00,WNW,296,6.0,12.0,78,0.00,,,0.00,,2013-02-10 19:22:00,
2013-02-10 12:52:00,15.0,8.0,-100.00,NW,319,8.0,14.0,73,0.00,,,0.00,,2013-02-10 19:52:00,
2013-02-10 13:02:00,15.0,8.0,-100.00,NW,319,8.0,14.0,73,0.00,,,0.00,,2013-02-10 20:02:00,
2013-02-10 13:11:00,15.0,8.0,-100.00,NW,319,8.0,14.0,73,0.00,,,0.00,,2013-02-10 20:11:00,
2013-02-10 13:22:00,15.0,8.0,-100.00,NW,319,8.0,14.0,73,0.00,,,0.00,,2013-02-10 20:22:00,
2013-02-10 13:52:00,15.0,6.0,-100.00,West,274,9.0,15.0,66,0.00,,,0.00,,2013-02-10 20:52:00,
2013-02-10 14:02:00,15.0,6.0,-100.00,West,274,9.0,15.0,66,0.00,,,0.00,,2013-02-10 21:02:00,
2013-02-10 14:11:00,15.0,6.0,-100.00,West,274,9.0,15.0,66,0.00,,,0.00,,2013-02-10 21:11:00,
2013-02-10 14:22:00,15.0,6.0,-100.00,West,274,9.0,15.0,66,0.00,,,0.00,,2013-02-10 21:22:00,
2013-02-10 14:52:00,13.0,5.0,-100.00,West,267,6.0,13.0,71,0.00,,,0.00,,2013-02-10 21:52:00,
2013-02-10 15:02:00,13.0,5.0,-100.00,West,267,6.0,13.0,71,0.00,,,0.00,,2013-02-10 22:02:00,
2013-02-10 15:11:00,13.0,5.0,-100.00,West,267,6.0,13.0,71,0.00,,,0.00,,2013-02-10 22:11:00,
2013-02-10 15:22:00,13.0,5.0,-100.00,West,267,6.0,13.0,71,0.00,,,0.00,,2013-02-10 22:22:00,
2013-02-10 15:53:00,13.0,5.0,-100.00,WSW,245,4.0,10.0,71,0.00,,,0.00,,2013-02-10 22:53:00,
2013-02-10 16:02:00,13.0,5.0,-100.00,WSW,245,4.0,10.0,71,0.00,,,0.00,,2013-02-10 23:02:00,
2013-02-10 16:11:00,13.0,5.0,-100.00,WSW,245,4.0,10.0,71,0.00,,,0.00,,2013-02-10 23:11:00,
2013-02-10 16:22:00,13.0,5.0,-100.00,WSW,245,4.0,10.0,71,0.00,,,0.00,,2013-02-10 23:22:00,
2013-02-10 16:52:00,13.0,6.0,-100.00,West,275,3.0,8.0,73,0.00,,,0.00,,2013-02-10 23:52:00,
2013-02-10 17:02:00,13.0,6.0,-100.00,West,275,3.0,8.0,73,0.00,,,0.00,,2013-02-11 00:02:00,
2013-02-10 17:11:00,13.0,6.0,-100.00,West,275,3.0,8.0,73,0.00,,,0.00,,2013-02-11 00:11:00,
2013-02-10 17:22:00,13.0,6.0,-100.00,West,275,3.0,8.0,73,0.00,,,0.00,,2013-02-11 00:22:00,
2013-02-10 17:52:00,10.0,6.0,-100.00,West,272,4.0,6.0,82,0.00,,,0.00,,2013-02-11 00:52:00,
2013-02-10 18:01:00,10.0,6.0,-100.00,West,272,4.0,6.0,82,0.00,,,0.00,,2013-02-11 01:01:00,
2013-02-10 18:11:00,10.0,6.0,-100.00,West,272,4.0,6.0,82,0.00,,,0.00,,2013-02-11 01:11:00,
2013-02-10 18:21:00,10.0,6.0,-100.00,West,272,4.0,6.0,82,0.00,,,0.00,,2013-02-11 01:21:00,
2013-02-10 18:52:00,6.0,2.0,-100.00,NE,43,0.0,4.0,84,0.00,,,0.00,,2013-02-11 01:52:00,
2013-02-10 19:01:00,6.0,2.0,-100.00,NE,43,0.0,4.0,84,0.00,,,0.00,,2013-02-11 02:01:00,
2013-02-10 19:11:00,6.0,2.0,-100.00,NE,43,0.0,4.0,84,0.00,,,0.00,,2013-02-11 02:11:00,
2013-02-10 19:21:00,6.0,2.0,-100.00,NE,43,0.0,4.0,84,0.00,,,0.00,,2013-02-11 02:21:00,
2013-02-10 19:52:00,6.0,2.0,-100.00,SW,228,0.0,2.0,82,0.00,,,0.00,,2013-02-11 02:52:00,
2013-02-10 20:02:00,6.0,2.0,-100.00,SW,228,0.0,2.0,82,0.00,,,0.00,,2013-02-11 03:02:00,
2013-02-10 20:11:00,6.0,2.0,-100.00,SW,228,0.0,2.0,82,0.00,,,0.00,,2013-02-11 03:11:00,
2013-02-10 20:21:00,6.0,2.0,-100.00,SW,228,0.0,2.0,82,0.00,,,0.00,,2013-02-11 03:21:00,
2013-02-10 20:52:00,7.0,2.0,-100.00,ESE,105,2.0,2.0,81,0.00,,,0.00,,2013-02-11 03:52:00,
2013-02-10 21:01:00,7.0,2.0,-100.00,ESE,105,2.0,2.0,81,0.00,,,0.00,,2013-02-11 04:01:00,
2013-02-10 21:11:00,7.0,2.0,-100.00,ESE,105,2.0,2.0,81,0.00,,,0.00,,2013-02-11 04:11:00,
2013-02-10 21:21:00,7.0,2.0,-100.00,ESE,105,2.0,2.0,81,0.00,,,0.00,,2013-02-11 04:21:00,
2013-02-10 21:52:00,6.0,1.0,-100.00,NW,314,0.0,2.0,81,0.00,,,0.00,,2013-02-11 04:52:00,
2013-02-10 22:01:00,6.0,1.0,-100.00,NW,314,0.0,2.0,81,0.00,,,0.00,,2013-02-11 05:01:00,
2013-02-10 22:12:00,6.0,1.0,-100.00,NW,314,0.0,2.0,81,0.00,,,0.00,,2013-02-11 05:12:00,
2013-02-10 22:22:00,6.0,1.0,-100.00,NW,314,0.0,2.0,81,0.00,,,0.00,,2013-02-11 05:22:00,
2013-02-10 22:53:00,7.0,3.0,-100.00,WSW,249,2.0,2.0,83,0.00,,,0.00,,2013-02-11 05:53:00,
2013-02-10 23:02:00,7.0,3.0,-100.00,WSW,249,2.0,2.0,83,0.00,,,0.00,,2013-02-11 06:02:00,
2013-02-10 23:11:00,7.0,3.0,-100.00,WSW,249,2.0,2.0,83,0.00,,,0.00,,2013-02-11 06:11:00,
2013-02-10 23:21:00,7.0,3.0,-100.00,WSW,249,2.0,2.0,83,0.00,,,0.00,,2013-02-11 06:21:00,
2013-02-10 23:52:00,6.0,2.0,-100.00,East,97,2.0,2.0,82,0.00,,,0.00,,2013-02-11 06:52:00,